Weather in Kempendyay

Russia / Sakha (Yakutia) Republic     62°01′23″N   118°37′36″E
temp.,
°C
wind,
m/s
gust,
m/s
humid.,
%
clouds,
%
prec.,
mm/h
press.,
hPa
HPBL,
m
9 may, sun
sun900:00+3ene1186100 0.0 101612
03:00+2ene1189100 0.0 101615
06:00+2ene2488100 0.0 101696
09:00+7e246654 0.0 1016609
12:00+10ene224872 0.0 10151625
15:00+11ne124398 0.0 10151845
18:00+12nne234392 0.0 10141777
21:00+8nne226551 0.0 101518
10 may, mon
mon1000:00+5nne117385 0.0 101610
03:00+4nne2274100 0.0 101614
06:00+4nne2791100 0.0 1016258
09:00+6nne358398 0.0 1017577
12:00+4nne3591100 0.2 1017575
15:00+8n3459100 0.3 10161335
18:00+7n3459100 0.0 10171144
21:00+4n247087 0.0 1018108
11 may, tue
tue1100:00+2n2675100 0.0 1018243
03:00+1n2486100 0.0 1018128
06:00+1n2584100 0.0 1018281
09:00+3nne2368100 0.0 10181009
12:00+4n2361100 0.2 10171122
15:00+5nne3464100 0.6 10171238
18:00+5n3470100 0.6 1017875
21:00+2n378697 1.4 1018724
12 may, wed
wed1200:000n2784100 0.1 1018322
03:00−2n138954 0.1 101886
06:00−1nnw23825 0.0 1017174
09:00+3nnw2362100 0.1 10161325
12:00+4nnw3360100 0.1 10151350
15:00+4nnw3458100 0.3 10151353
18:00+5nnw3453100 0.2 10141327
21:00+2nnw236993 0.3 101575
13 may, thu
thu1300:00−1nw11795 0.0 101510
03:00−2nw11795 0.0 101510
06:00−1wnw14685 0.0 1015142
09:00+4nw244564 0.0 10141460
12:00+7wnw3438100 0.0 10131947
15:00+8wnw3434100 0.0 10122250
18:00+9wnw343486 0.0 10112109
21:00+5w225318 0.0 101110